Rechercher aéroport 
image banner adimage banner ad
image banner ad

EVRA - Riga

Situé à Riga, Latvia

ICAO - EVRA, IATA - RIX

Données fournies par Airmate  

Information générale

Coordonnées: N56°55'25" E23°58'16"
Élévation : 37 feet MSL.
Variation magnétique : 7° East
Voir autres Aéroports à Riga (city)

Données opérationnelles

Accessible au public
Heure actuelle UTC:
Heure actuelle locale:
Météo
METAR: EVRA 281350Z 15009KT 9999 FEW016 11/08 Q1012 R18/190095 NOSIG
TAF: TAF EVRA 281101Z 2812/2912 17007KT 9999 SCT008 SCT015 TEMPO 2900/2903 BKN012 OVC020 TEMPO 2903/2909 4000 RA BR BKN005 OVC015
Voir NOTAMs / SUP AIP / TFR affectant cet aéroport [VIEW]
Fréquences de communication: [VIEW]

Pistes:

Identifiant RWYQFULongueur (ft)Largeur (ft)SurfaceLDA (ft)
18185°10499148CONC+ASPH10499
3610499148CONC+ASPH10499

Coordonnées de l'aéroport

Adresse: Riga Latvia

Autres services d'aviation

Écoles de pilotage

Air Baltic

Air Baltic
training@airbaltictraining.com+37167668512
+37126393535

Airtraining Group

Airtraining Group
ht@airtraining.eu+37125474744

Bcat

Bcat

Eriva

Eriva
info@eriva.lv+37126541441

Swan Fly

Swan Fly

Ateliers de réparation

Smart Lynx

Smart Lynx

Vue satellite de EVRA